Temperature
22 21 21 21 21 20 20 20 19 19 19 19 19 18 18 18 18 18 18 18 17 17 17 17 17 16 16 16 16 16 16 16 15 15 15 14 14 14 14 14 14 13 13
22 21 21 21 20 20 20 20 19 19 19 19 19 19 18 18 18 18 18 17 17 17 17 16 16 16 16 16 16 16 16 16 15 15 14 14 14 14 14 13 13 13 13
22 21 21 21 20 20 20 19 19 19 19 19 19 19 18 18 18 18 18 17 17 17 17 16 16 16 16 16 16 16 15 15 15 15 14 14 14 14 13 13 13 13 12
22 22 21 21 21 20 20 20 19 19 19 19 19 19 18 18 18 18 18 17 17 17 17 16 16 16 16 16 16 15 15 15 15 15 14 14 14 14 13 13 13 12 12
22 21 21 21 21 20 20 19 19 19 19 19 19 19 18 18 18 18 17 17 17 16 16 16 16 16 16 16 15 15 15 15 15 14 14 14 14 13 13 13 13 12 12
22 21 21 21 20 20 20 19 19 19 19 19 19 19 18 18 18 17 17 17 17 16 16 16 16 16 16 16 16 15 15 15 15 14 14 14 14 14 13 13 13 12 12
21 21 21 21 20 20 19 19 19 19 19 18 18 18 18 18 18 18 17 17 17 16 16 16 16 16 16 16 16 15 15 15 15 14 14 14 14 14 13 13 13 13 12
21 21 21 20 20 19 19 19 19 19 18 18 18 18 18 18 18 18 17 17 16 16 16 16 16 16 16 15 15 15 15 15 15 14 14 14 14 14 13 13 13 13 12
21 21 20 20 20 19 19 19 19 18 18 18 18 18 18 18 18 17 17 16 16 16 16 16 16 15 15 15 15 15 15 15 14 14 14 14 14 13 13 13 13 12 12
21 20 20 20 20 19 19 19 19 18 18 18 17 17 17 17 17 17 17 16 16 16 16 16 15 15 15 15 15 14 14 14 14 14 14 14 13 13 13 13 13 12 12
20 20 20 20 19 19 19 19 19 18 18 18 17 17 17 17 17 17 17 16 16 15 15 15 15 15 15 15 14 14 14 14 14 14 13 13 13 13 13 13 13 12 12
20 19 19 19 19 19 19 18 18 18 18 17 17 17 17 17 17 17 17 16 16 15 15 15 15 15 15 14 14 14 14 14 13 13 13 13 13 13 13 13 13 12 12
19 19 19 19 18 18 18 18 18 18 17 17 17 17 17 17 17 17 17 16 16 15 15 15 15 15 15 14 14 14 14 13 13 13 13 13 13 13 13 12 12 12 12
19 19 18 18 18 18 18 18 17 17 17 17 17 17 17 17 17 17 16 16 16 15 15 15 15 14 14 14 14 14 13 13 13 13 13 13 13 12 12 12 12 12 12
19 18 18 18 18 18 18 18 17 17 17 17 17 17 17 16 16 16 16 15 15 15 15 14 14 14 14 13 13 13 13 13 13 13 13 12 12 12 12 12 11 11 11
18 18 18 17 17 17 17 17 17 17 17 17 17 17 17 16 16 16 15 15 15 14 14 14 13 13 13 13 13 13 13 13 13 12 12 12 12 12 12 11 11 11 11
18 18 17 17 17 17 17 17 17 16 16 16 16 16 16 16 16 15 15 14 14 14 14 14 13 13 13 13 13 13 12 12 12 12 12 12 12 11 11 11 11 11 11
17 17 17 17 17 17 17 17 17 16 16 16 16 16 15 15 15 15 14 14 14 13 13 13 13 13 12 12 12 12 12 12 12 12 12 12 11 11 11 11 11 11 11
17 17 17 17 17 17 17 17 16 16 16 15 15 15 15 15 14 14 14 14 14 13 13 13 12 12 12 12 12 12 12 12 11 11 11 11 11 11 11 11 11 11 10
17 17 17 16 16 16 16 16 16 16 15 15 15 15 15 14 14 14 14 14 13 13 13 12 12 12 12 12 12 12 12 11 11 11 11 11 11 11 11 11 11 10 10
17 16 16 16 16 16 16 16 15 15 15 15 15 14 14 14 14 14 13 13 13 13 12 12 12 12 12 11 11 11 11 11 11 11 11 11 11 11 10 10 10 10 10
16 16 16 16 15 15 15 15 15 15 15 14 14 14 14 14 14 13 13 13 12 12 12 12 12 11 11 11 11 11 10 10 10 10 10 10 10 10 10 10 10 10 10
16 16 16 15 15 15 15 15 15 15 14 14 14 14 13 13 13 13 12 12 12 12 12 12 11 11 11 11 11 10 10 10 10 10 10 10 10 10 10 9 9 9 9
15 15 15 15 15 15 15 15 14 14 14 14 14 13 13 13 12 12 12 12 11 11 11 11 11 11 10 10 10 10 10 10 10 10 9 9 9 9 9 9 9 9 9
15 15 15 15 14 14 14 14 14 14 13 13 13 13 12 12 12 12 11 11 11 11 10 10 10 10 10 10 10 10 9 9 9 9 9 9 8 8 8 8 8 8 8
14 14 14 14 14 14 14 13 13 13 13 13 12 12 12 12 11 11 11 10 10 10 10 10 10 9 10 9 9 9 9 9 9 8 8 8 8 8 8 8 8 8 8
Wind_Speed
9 8 6 7 7 6 4 4 3 3 2 3 3 2 2 2 2 2 2 2 2 2 2 1 1 2 1 2 1 0 1 1 1 0 1 2 2 2 5 4 6 7 6
9 8 7 6 6 6 5 4 4 4 4 4 4 3 3 3 2 2 3 2 2 2 2 1 2 2 1 1 1 0 0 1 2 2 1 2 2 3 4 3 4 6 6
10 9 8 7 7 6 6 5 4 4 3 3 3 3 3 3 3 3 3 2 2 2 2 2 2 2 1 1 1 1 1 0 1 2 2 1 2 3 4 3 3 3 6
9 9 8 8 7 7 5 5 5 4 4 4 3 3 3 3 2 2 2 3 3 2 1 2 2 2 1 1 2 1 1 1 2 2 2 2 2 3 3 3 3 3 2
8 8 7 7 6 6 6 5 5 5 5 4 3 4 4 3 3 3 3 4 3 3 2 2 2 1 1 1 1 1 1 1 2 2 2 2 2 3 4 3 3 3 2
7 7 6 6 6 6 6 5 5 5 4 4 4 4 4 5 4 4 4 3 2 3 3 2 2 2 3 3 3 2 2 3 3 2 2 3 3 3 4 4 3 3 3
7 7 7 7 7 6 7 6 5 5 5 5 5 4 4 3 3 2 3 3 3 3 3 2 3 2 3 3 3 4 4 4 4 4 3 3 2 2 3 4 3 3 3
7 7 7 7 7 7 6 6 5 4 4 5 4 5 4 5 5 5 4 4 4 4 3 3 3 2 2 2 3 3 4 3 3 4 3 2 2 2 3 4 5 4 2
7 7 7 7 6 6 6 5 4 4 4 5 4 5 5 5 6 6 6 5 5 5 4 3 3 3 3 2 3 3 3 2 2 2 3 3 3 2 2 2 3 3 3
6 5 5 5 5 5 5 5 4 4 4 5 5 5 5 5 7 8 7 5 5 5 4 4 4 4 4 4 3 3 3 3 2 1 2 3 3 3 4 3 3 3 3
4 3 4 4 5 5 4 4 4 5 5 5 5 5 6 6 7 8 7 5 5 5 4 4 4 5 6 6 5 4 5 4 3 3 3 3 3 3 4 4 4 4 4
3 3 3 4 5 5 4 4 5 5 6 6 5 5 5 4 4 6 8 8 6 4 3 3 2 4 5 5 5 5 5 4 4 4 4 4 4 4 5 5 5 5 4
4 4 3 3 3 3 4 5 5 4 5 6 5 5 5 4 4 6 8 8 7 4 3 2 1 4 4 4 6 6 5 4 4 5 5 4 4 4 3 3 4 4 4
4 4 3 4 4 3 3 4 4 5 6 6 5 4 4 3 3 3 4 5 5 5 4 2 3 5 5 5 5 5 5 5 5 5 4 3 3 3 3 3 3 4 4
3 4 4 4 4 3 3 3 4 3 4 4 3 2 2 2 2 3 4 4 4 4 4 3 3 3 4 4 5 5 5 5 6 5 4 3 3 3 3 3 3 3 4
3 4 4 4 3 3 3 3 1 2 2 2 2 2 2 2 3 3 4 3 3 4 3 3 3 3 3 3 4 3 4 4 5 5 4 4 4 4 4 3 3 4 4
3 3 3 4 3 4 4 4 3 1 1 1 2 2 4 4 3 3 3 4 4 5 3 3 3 3 3 3 3 3 3 3 4 4 4 4 4 4 4 4 4 4 4
3 3 3 3 3 4 4 4 4 4 3 2 2 3 4 5 4 3 4 3 2 3 4 4 4 3 3 3 3 3 3 3 3 4 3 3 4 4 4 4 4 5 5
3 3 3 3 4 4 4 5 4 3 3 2 2 2 3 3 3 3 5 3 4 4 4 4 4 3 3 3 3 3 3 3 3 4 3 3 4 4 4 5 5 6 6
2 4 3 3 4 4 4 3 3 2 2 2 2 2 1 2 1 2 4 5 5 4 4 3 3 3 3 3 2 3 3 3 3 4 3 3 3 4 4 5 4 4 5
3 3 3 4 4 4 3 2 2 2 2 2 1 2 3 3 3 3 3 4 4 4 3 3 3 3 3 3 2 3 3 3 2 3 3 3 3 3 3 3 4 4 4
3 4 4 4 3 3 3 2 3 3 3 2 1 1 3 3 3 2 2 2 2 2 2 2 2 2 2 2 2 2 2 2 3 3 3 3 3 3 3 3 3 3 3
4 4 3 3 3 3 4 3 3 3 2 2 2 1 2 2 2 1 1 0 0 1 1 2 2 1 1 1 2 1 2 3 3 3 3 3 3 3 2 3 4 4 3
3 3 2 2 2 3 3 2 2 2 1 1 1 0 0 0 1 1 2 1 1 1 1 1 1 1 2 2 3 3 3 3 4 3 4 3 4 3 3 3 4 4 4
2 2 2 2 2 2 2 1 1 0 1 0 0 1 1 1 1 1 1 2 1 2 3 2 2 2 3 4 4 5 7 7 6 5 4 3 3 3 3 3 3 4 3
1 2 2 1 1 1 0 0 1 1 1 1 1 1 1 1 1 1 2 2 2 3 4 4 5 5 5 5 5 6 7 7 7 7 5 3 3 2 3 3 4 3 3
Wind_Direction
182 186 194 182 190 192 201 203 200 209 203 200 209 211 224 229 228 229 253 262 271 286 287 300 299 292 314 301 326 275 222 143 161 216 135 149 151 131 133 136 132 142 144
181 182 191 185 183 188 195 197 198 199 207 214 215 216 227 224 221 227 250 258 264 278 288 310 298 292 301 305 351 308 162 161 163 178 180 174 171 160 150 160 157 156 150
182 184 185 186 188 195 197 186 190 199 208 217 216 220 230 234 219 224 237 248 263 271 284 287 286 284 289 291 270 252 215 182 147 177 191 174 165 161 157 173 183 157 159
178 183 184 190 192 192 192 187 189 196 210 215 215 224 228 234 224 220 233 236 250 260 264 274 277 267 271 273 256 242 226 192 182 191 186 186 174 166 170 181 183 185 181
177 183 186 185 185 186 190 195 194 200 214 213 214 220 228 230 229 224 229 232 230 245 235 235 253 149 116 182 253 224 239 215 212 218 202 195 182 171 195 191 181 182 198
180 187 182 180 184 192 195 195 196 202 215 216 215 223 229 239 235 222 220 245 233 238 242 228 215 173 176 185 191 203 221 229 234 227 230 216 209 200 191 190 184 190 210
182 187 183 183 188 194 204 198 201 205 213 220 221 220 222 233 233 241 238 245 258 255 254 244 259 231 183 183 188 208 230 243 237 238 232 230 225 204 188 196 202 205 215
185 192 188 189 192 193 199 202 202 204 212 220 221 223 217 223 216 219 231 231 249 253 242 229 234 230 244 211 215 213 210 225 242 237 235 237 221 207 203 207 203 204 211
189 193 190 190 194 198 203 202 204 209 216 221 219 219 222 220 217 215 216 226 234 243 235 237 235 233 231 225 219 229 233 231 232 190 171 168 168 185 201 201 203 202 219
192 192 190 189 194 200 204 203 207 214 220 224 225 224 225 225 216 214 214 232 232 234 227 224 227 231 206 206 215 221 228 238 227 201 194 198 202 205 213 217 221 227 231
178 181 189 194 198 204 202 198 201 211 219 226 230 228 226 226 212 209 208 229 249 243 233 226 219 198 200 213 217 227 230 234 232 222 217 210 212 219 221 223 230 234 229
169 180 196 206 217 212 201 208 211 216 219 222 229 236 232 219 207 206 209 220 247 261 258 244 220 174 191 213 221 238 244 252 249 239 233 226 221 222 222 216 217 223 229
170 183 197 209 223 215 206 214 220 223 228 228 225 232 231 220 209 203 206 216 228 236 254 274 238 196 203 219 224 228 239 247 247 245 241 235 227 223 219 214 205 208 223
177 182 191 210 216 217 221 220 221 226 233 233 233 231 227 221 218 197 194 210 217 227 242 241 220 224 240 246 235 232 232 240 247 251 248 238 227 216 220 218 212 209 220
189 191 206 215 213 216 221 228 227 238 238 236 245 239 237 232 252 198 196 198 208 209 211 219 224 220 228 235 234 230 231 234 245 252 251 247 240 232 228 221 221 224 228
202 207 215 222 216 212 212 236 270 246 245 224 212 217 243 202 187 178 185 187 183 168 186 224 230 232 235 249 253 245 240 243 248 242 235 232 235 235 233 219 215 227 237
215 217 222 224 224 223 219 222 234 268 301 273 244 219 210 208 194 179 175 173 176 164 194 226 232 237 237 240 245 241 249 258 256 240 233 232 236 240 237 232 224 230 238
226 234 225 225 231 237 230 231 230 225 227 243 257 230 217 213 212 188 149 141 192 197 223 232 235 235 239 246 245 244 249 249 252 251 245 243 240 239 240 237 231 233 240
232 238 237 241 247 250 245 243 242 236 232 223 224 225 217 207 199 189 162 202 224 225 226 231 239 241 241 243 242 244 250 255 260 252 250 251 252 249 247 244 241 236 238
226 228 234 250 255 258 252 246 241 232 228 230 230 223 160 145 190 198 201 223 234 236 233 233 240 246 251 254 251 251 254 252 257 259 264 258 252 251 253 253 249 244 242
236 232 233 246 248 255 256 240 239 247 237 226 230 206 191 213 221 222 215 218 225 232 232 238 242 247 254 256 263 273 280 287 287 283 281 275 268 263 258 251 251 252 254
244 229 227 233 243 256 261 245 238 241 244 234 214 195 198 231 241 223 218 218 218 226 235 249 258 255 274 293 293 288 283 287 295 289 283 280 268 260 257 261 262 264 255
253 248 238 236 246 243 245 246 242 239 239 228 210 192 195 237 265 287 285 300 311 251 249 241 254 293 353 344 344 327 297 292 294 299 299 297 290 280 274 276 273 270 258
241 238 244 251 254 252 247 247 246 243 242 242 216 201 173 242 325 347 356 347 5 9 21 61 54 24 16 19 17 13 4 349 338 326 308 297 296 303 300 286 279 275 268
262 262 255 256 263 262 266 264 251 285 310 350 13 3 29 31 350 352 10 9 16 31 24 38 45 45 46 32 27 18 7 4 352 338 318 296 293 305 314 307 305 303 304
280 275 278 282 273 275 294 351 50 31 7 0 15 33 35 33 24 33 35 28 27 35 39 44 43 43 42 39 31 23 17 10 356 339 326 309 306 327 329 318 327 328 328
Height
1525 1528 1530 1531 1532 1533 1534 1535 1536 1536 1537 1537 1536 1536 1536 1536 1536 1535 1535 1534 1534 1533 1532 1532 1531 1531 1530 1530 1530 1530 1530 1530 1529 1529 1529 1529 1529 1528 1528 1527 1527 1526 1526
1523 1525 1527 1529 1530 1531 1532 1533 1534 1534 1535 1535 1535 1535 1535 1535 1534 1534 1533 1533 1532 1532 1531 1531 1530 1530 1529 1529 1528 1528 1528 1528 1528 1527 1527 1527 1527 1527 1526 1526 1526 1525 1525
1522 1523 1525 1526 1528 1529 1530 1531 1532 1532 1533 1533 1533 1533 1533 1533 1533 1532 1532 1531 1531 1530 1530 1529 1528 1528 1527 1527 1527 1527 1527 1527 1526 1526 1525 1526 1526 1525 1525 1525 1525 1525 1524
1519 1521 1522 1524 1525 1526 1527 1528 1529 1530 1530 1530 1531 1531 1531 1531 1531 1530 1530 1529 1529 1528 1528 1527 1527 1526 1526 1525 1525 1525 1525 1525 1525 1524 1524 1524 1524 1524 1524 1523 1523 1523 1523
1517 1518 1519 1521 1522 1523 1525 1526 1527 1527 1528 1528 1528 1528 1528 1528 1528 1528 1528 1527 1527 1526 1526 1525 1525 1525 1524 1524 1524 1524 1523 1523 1523 1522 1522 1522 1522 1522 1522 1521 1521 1521 1521
1515 1516 1517 1518 1520 1521 1522 1523 1524 1524 1525 1525 1525 1525 1525 1525 1526 1525 1525 1525 1525 1524 1524 1523 1523 1522 1522 1522 1521 1521 1521 1521 1520 1520 1520 1519 1519 1519 1519 1519 1519 1520 1519
1511 1513 1514 1516 1517 1518 1519 1520 1520 1521 1522 1522 1522 1522 1522 1522 1522 1522 1522 1522 1522 1521 1521 1520 1520 1520 1519 1519 1519 1519 1518 1518 1518 1518 1517 1517 1517 1517 1517 1517 1517 1517 1517
1509 1510 1511 1512 1514 1515 1516 1517 1517 1518 1518 1518 1519 1519 1518 1518 1518 1519 1519 1519 1518 1517 1517 1517 1517 1516 1516 1516 1516 1515 1515 1515 1515 1515 1515 1514 1514 1514 1514 1515 1515 1515 1515
1506 1508 1509 1510 1511 1512 1513 1513 1514 1515 1515 1515 1515 1515 1515 1515 1515 1515 1515 1515 1514 1514 1513 1513 1513 1513 1513 1513 1513 1512 1512 1511 1512 1511 1511 1511 1511 1512 1512 1512 1512 1512 1511
1503 1505 1506 1506 1507 1508 1509 1510 1510 1511 1511 1512 1512 1512 1512 1511 1511 1511 1511 1511 1510 1510 1510 1509 1509 1509 1509 1509 1509 1509 1508 1508 1508 1508 1508 1508 1508 1508 1508 1508 1508 1508 1508
1500 1501 1502 1503 1504 1505 1506 1506 1507 1507 1508 1508 1508 1508 1508 1508 1508 1508 1508 1507 1507 1507 1507 1506 1505 1505 1505 1506 1506 1506 1505 1505 1505 1505 1505 1505 1504 1504 1504 1504 1505 1505 1504
1498 1498 1499 1500 1501 1502 1502 1503 1503 1504 1504 1504 1504 1504 1504 1504 1504 1504 1504 1504 1504 1504 1503 1503 1502 1502 1502 1502 1502 1502 1502 1503 1502 1502 1501 1501 1501 1500 1500 1500 1500 1500 1500
1494 1495 1496 1497 1497 1498 1499 1499 1500 1500 1500 1500 1500 1500 1500 1500 1500 1500 1500 1500 1500 1499 1499 1499 1499 1499 1499 1499 1499 1499 1499 1498 1499 1498 1498 1497 1497 1497 1497 1497 1496 1496 1496
1491 1492 1493 1494 1495 1495 1496 1496 1496 1496 1496 1496 1496 1496 1496 1496 1496 1495 1495 1495 1495 1495 1495 1495 1494 1494 1495 1495 1495 1495 1495 1495 1495 1495 1494 1494 1494 1493 1493 1493 1492 1492 1491
1489 1490 1491 1492 1492 1492 1492 1493 1493 1493 1493 1493 1493 1493 1492 1492 1491 1492 1492 1491 1491 1491 1491 1491 1490 1490 1490 1491 1491 1490 1490 1490 1490 1490 1490 1490 1489 1489 1489 1489 1488 1488 1487
1487 1487 1488 1489 1489 1489 1489 1489 1489 1490 1490 1489 1489 1489 1488 1488 1487 1487 1488 1488 1487 1487 1487 1487 1487 1486 1486 1486 1487 1486 1486 1486 1486 1485 1485 1485 1485 1484 1484 1484 1484 1483 1483
1484 1485 1486 1486 1486 1486 1486 1486 1486 1486 1486 1486 1486 1485 1484 1484 1483 1483 1483 1484 1484 1484 1483 1483 1483 1483 1482 1483 1483 1482 1482 1482 1482 1482 1481 1480 1480 1480 1480 1480 1479 1479 1478
1481 1482 1483 1483 1483 1483 1483 1483 1483 1483 1482 1482 1482 1482 1481 1481 1480 1480 1480 1480 1480 1480 1480 1480 1480 1479 1479 1479 1479 1478 1478 1477 1477 1477 1476 1476 1476 1476 1475 1475 1475 1474 1474
1478 1479 1480 1480 1481 1481 1481 1481 1481 1480 1479 1479 1479 1478 1478 1478 1477 1477 1477 1476 1476 1476 1476 1476 1476 1476 1475 1475 1474 1474 1474 1473 1473 1472 1472 1472 1471 1471 1471 1470 1470 1470 1469
1475 1476 1477 1477 1478 1478 1478 1478 1477 1477 1476 1476 1475 1475 1475 1474 1474 1474 1473 1473 1473 1473 1473 1473 1473 1472 1472 1471 1471 1470 1470 1469 1469 1468 1468 1467 1467 1467 1466 1466 1465 1465 1464
1473 1473 1474 1475 1475 1475 1475 1474 1474 1474 1474 1473 1473 1473 1473 1472 1472 1472 1471 1470 1470 1470 1470 1470 1470 1469 1468 1468 1467 1466 1466 1465 1464 1464 1464 1463 1462 1462 1461 1461 1461 1460 1460
1470 1471 1471 1471 1472 1472 1472 1472 1472 1471 1471 1471 1470 1470 1470 1470 1470 1469 1468 1467 1467 1467 1466 1466 1466 1466 1465 1464 1463 1462 1461 1460 1460 1460 1459 1459 1458 1457 1457 1456 1456 1455 1455
1468 1468 1469 1469 1469 1469 1469 1469 1469 1469 1469 1469 1469 1468 1468 1467 1467 1467 1465 1464 1463 1463 1462 1462 1462 1462 1461 1460 1460 1459 1458 1456 1456 1455 1455 1454 1454 1453 1452 1452 1452 1452 1451
1465 1466 1466 1466 1466 1466 1466 1466 1467 1466 1466 1466 1466 1465 1465 1464 1464 1464 1463 1462 1461 1460 1460 1459 1459 1458 1457 1456 1456 1455 1454 1453 1452 1451 1451 1450 1450 1449 1448 1448 1447 1447 1447
1463 1463 1463 1463 1463 1463 1463 1463 1464 1463 1463 1463 1462 1462 1462 1461 1461 1460 1460 1460 1459 1457 1457 1456 1455 1455 1454 1453 1452 1451 1450 1449 1448 1448 1447 1447 1446 1445 1445 1444 1444 1443 1443
1459 1460 1460 1460 1460 1459 1460 1460 1461 1460 1460 1460 1460 1460 1460 1459 1458 1458 1457 1457 1456 1455 1454 1453 1452 1451 1450 1449 1448 1447 1446 1445 1444 1444 1443 1443 1442 1441 1441 1441 1441 1440 1439